H1 CPF 2 NER 2023 3 30 9 089 01 glonass107 H2 0706501 9107 32393 2023 3 30 0 0 0 2023 4 2 23 45 0 900 1 1 0 0 0 1 H9 10 0 60033 0.00000 0 19723066.567 12445242.423 -10349424.697 10 0 60033 900.00000 0 20608468.705 13095867.884 -7393893.585 10 0 60033 1800.00000 0 21247765.669 13448012.208 -4294799.253 10 0 60033 2700.00000 0 21593894.175 13531708.421 -1112291.831 10 0 60033 3600.00000 0 21608811.430 13386648.498 2091821.800 10 0 60033 4500.00000 0 21265224.618 13060288.594 5255279.485 10 0 60033 5400.00000 0 20547887.389 12605636.166 8316576.965 10 0 60033 6300.00000 0 19454407.263 12078812.861 11216168.617 10 0 60033 7200.00000 0 17995528.416 11536496.759 13897631.744 10 0 60033 8100.00000 0 16194876.436 11033352.843 16308771.020 10 0 60033 9000.00000 0 14088174.346 10619561.118 18402640.963 10 0 60033 9900.00000 0 11721961.618 10338547.784 20138465.881 10 0 60033 10800.00000 0 9151868.848 10225016.180 21482438.980 10 0 60033 11700.00000 0 6440519.512 10303361.509 22408384.754 10 0 60033 12600.00000 0 3655145.968 10586536.990 22898271.586 10 0 60033 13500.00000 0 865018.790 11075419.918 22942564.544 10 0 60033 14400.00000 0 -1861203.692 11758704.860 22540411.505 10 0 60033 15300.00000 0 -4458095.433 12613328.876 21699659.025 10 0 60033 16200.00000 0 -6865943.505 13605411.034 20436697.725 10 0 60033 17100.00000 0 -9032986.796 14691666.789 18776140.257 10 0 60033 18000.00000 0 -10917319.861 15821237.497 16750338.212 10 0 60033 18900.00000 0 -12488383.373 16937857.840 14398747.508 10 0 60033 19800.00000 0 -13727980.009 17982269.487 11767154.798 10 0 60033 20700.00000 0 -14630774.645 18894778.839 8906780.288 10 0 60033 21600.00000 0 -15204259.500 19617850.588 5873274.833 10 0 60033 22500.00000 0 -15468187.448 20098627.270 2725631.343 10 0 60033 23400.00000 0 -15453499.186 20291268.149 -474967.677 10 0 60033 24300.00000 0 -15200791.204 20159008.570 -3666343.428 10 0 60033 25200.00000 0 -14758390.846 19675852.753 -6786531.194 10 0 60033 26100.00000 0 -14180121.058 18827828.723 -9774983.784 10 0 60033 27000.00000 0 -13522850.263 17613752.590 -12573744.458 10 0 60033 27900.00000 0 -12843931.454 16045470.145 -15128566.604 10 0 60033 28800.00000 0 -12198638.843 14147565.671 -17389958.770 10 0 60033 29700.00000 0 -11637710.028 11956550.098 -19314135.401 10 0 60033 30600.00000 0 -11205096.843 9519562.147 -20863855.770 10 0 60033 31500.00000 0 -10936018.893 6892636.151 -22009135.813 10 0 60033 32400.00000 0 -10855400.938 4138607.921 -22727820.208 10 0 60033 33300.00000 0 -10976759.083 1324744.598 -23006004.599 10 0 60033 34200.00000 0 -11301582.069 -1479804.314 -22838300.606 10 0 60033 35100.00000 0 -11819233.378 -4206630.500 -22227939.016 10 0 60033 36000.00000 0 -12507378.403 -6790657.740 -21186709.320 10 0 60033 36900.00000 0 -13332919.200 -9172594.252 -19734736.551 10 0 60033 37800.00000 0 -14253398.347 -11301146.140 -17900099.184 10 0 60033 38700.00000 0 -15218813.964 -13134901.312 -15718294.622 10 0 60033 39600.00000 0 -16173770.657 -14643806.465 -13231561.566 10 0 60033 40500.00000 0 -17059876.951 -15810176.364 -10488071.317 10 0 60033 41400.00000 0 -17818289.110 -16629193.791 -7541002.561 10 0 60033 42300.00000 0 -18392294.656 -17108879.499 -4447516.748 10 0 60033 43200.00000 0 -18729826.767 -17269533.609 -1267653.304 10 0 60033 44100.00000 0 -18785803.146 -17142671.960 1936834.235 10 0 60033 45000.00000 0 -18524189.878 -16769502.270 5103678.503 10 0 60033 45900.00000 0 -17919702.037 -16199004.462 8171311.407 10 0 60033 46800.00000 0 -16959067.874 -15485696.415 11080065.981 10 0 60033 47700.00000 0 -15641801.664 -14687179.860 13773342.895 10 0 60033 48600.00000 0 -13980450.973 -13861570.624 16198718.255 10 0 60033 49500.00000 0 -12000306.317 -13064922.375 18308970.458 10 0 60033 50400.00000 0 -9738583.879 -12348753.380 20063005.484 10 0 60033 51300.00000 0 -7243114.265 -11757781.361 21426662.199 10 0 60033 52200.00000 0 -4570591.085 -11327962.667 22373381.687 10 0 60033 53100.00000 0 -1784451.757 -11084919.011 22884727.374 10 0 60033 54000.00000 0 1047521.633 -11042818.501 22950745.788 10 0 60033 54900.00000 0 3855781.856 -11203758.368 22570160.930 10 0 60033 55800.00000 0 6571669.276 -11557675.514 21750398.510 10 0 60033 56700.00000 0 9130027.616 -12082788.587 20507439.630 10 0 60033 57600.00000 0 11471674.186 -12746552.754 18865506.825 10 0 60033 58500.00000 0 13545622.007 -13507086.619 16856588.665 10 0 60033 59400.00000 0 15310961.838 -14315010.645 14519812.283 10 0 60033 60300.00000 0 16738326.334 -15115619.034 11900676.239 10 0 60033 61200.00000 0 17810876.217 -15851292.799 9050158.969 10 0 60033 62100.00000 0 18524768.462 -16464051.517 6023720.597 10 0 60033 63000.00000 0 18889088.457 -16898135.434 2880218.016 10 0 60033 63900.00000 0 18925250.604 -17102508.295 -319244.981 10 0 60033 64800.00000 0 18665894.336 -17033174.760 -3512509.571 10 0 60033 65700.00000 0 18153323.691 -16655214.254 -6637572.018 10 0 60033 66600.00000 0 17437557.680 -15944445.229 -9633788.043 10 0 60033 67500.00000 0 16574074.851 -14888649.594 -12443047.824 10 0 60033 68400.00000 0 15621347.972 -13488305.687 -15010898.850 10 0 60033 69300.00000 0 14638273.164 -11756798.927 -17287595.128 10 0 60033 70200.00000 0 13681601.798 -9720101.127 -19229053.013 10 0 60033 71100.00000 0 12803482.839 -7415931.512 -20797696.010 10 0 60033 72000.00000 0 12049218.347 -4892433.963 -21963173.157 10 0 60033 72900.00000 0 11455325.511 -2206424.784 -22702938.166 10 0 60033 73800.00000 0 11047985.666 578717.200 -23002679.135 10 0 60033 74700.00000 0 10841944.451 3395431.826 -22856591.291 10 0 60033 75600.00000 0 10839908.558 6174532.736 -22267488.076 10 0 60033 76500.00000 0 11032463.946 8847832.084 -21246748.562 10 0 60033 77400.00000 0 11398518.872 11350727.497 -19814102.052 10 0 60033 78300.00000 0 11906253.387 13624645.443 -17997253.470 10 0 60033 79200.00000 0 12514535.966 15619240.828 -15831355.948 10 0 60033 80100.00000 0 13174748.436 17294262.376 -13358339.796 10 0 60033 81000.00000 0 13832943.196 18621006.873 -10626109.742 10 0 60033 81900.00000 0 14432242.590 19583302.059 -7687624.930 10 0 60033 82800.00000 0 14915379.750 20177977.316 -4599878.657 10 0 60033 83700.00000 0 15227273.888 20414802.468 -1422796.977 10 0 60033 84600.00000 0 15317531.089 20315897.226 1781922.767 10 0 60033 85500.00000 0 15142764.363 19914636.001 4952010.953 10 0 60034 0.00000 0 14668633.964 19254094.224 8025838.366 10 0 60034 900.00000 0 13871520.193 18385101.323 10943620.154 10 0 60034 1800.00000 0 12739757.129 17363983.571 13648582.868 10 0 60034 2700.00000 0 11274372.744 16250091.211 16088076.668 10 0 60034 3600.00000 0 9489302.956 15103215.416 18214606.246 10 0 60034 4500.00000 0 7411068.737 13981004.271 19986761.446 10 0 60034 5400.00000 0 5077928.278 12936487.311 21370028.733 10 0 60034 6300.00000 0 2538538.375 12015813.381 22337467.422 10 0 60034 7200.00000 0 -149820.078 11256297.545 22870237.287 10 0 60034 8100.00000 0 -2923379.209 10684859.458 22957967.236 10 0 60034 9000.00000 0 -5714295.434 10316919.037 22598957.875 10 0 60034 9900.00000 0 -8453234.738 10155795.760 21800214.053 10 0 60034 10800.00000 0 -11072024.657 10192636.566 20577306.816 10 0 60034 11700.00000 0 -13506262.735 10406874.926 18954067.529 10 0 60034 12600.00000 0 -15697773.051 10767201.111 16962120.174 10 0 60034 13500.00000 0 -17596808.788 11233002.025 14640261.087 10 0 60034 14400.00000 0 -19163909.467 11756209.055 12033698.351 10 0 60034 15300.00000 0 -20371335.974 12283475.077 9193165.988 10 0 60034 16200.00000 0 -21204024.315 12758587.791 6173930.559 10 0 60034 17100.00000 0 -21660019.390 13125016.601 3034710.022 10 0 60034 18000.00000 0 -21750371.926 13328484.584 -163473.491 10 0 60034 18900.00000 0 -21498504.484 13319456.222 -3358484.072 10 0 60034 19800.00000 0 -20939074.722 13055435.235 -6488281.859 10 0 60034 20700.00000 0 -20116385.240 12502975.084 -9492128.306 10 0 60034 21600.00000 0 -19082408.231 11639317.070 -12311763.208 10 0 60034 22500.00000 0 -17894509.039 10453586.818 -14892530.681 10 0 60034 23400.00000 0 -16612965.066 8947498.627 -17184432.478 10 0 60034 24300.00000 0 -15298384.509 7135537.910 -19143088.850 10 0 60034 25200.00000 0 -14009133.179 5044613.666 -20730589.164 10 0 60034 26100.00000 0 -12798876.795 2713195.005 -21916216.792 10 0 60034 27000.00000 0 -11714340.965 189966.910 -22677035.309 10 0 60034 27900.00000 0 -10793381.603 -2467939.824 -22998325.665 10 0 60034 28800.00000 0 -10063445.526 -5197072.152 -22873866.692 10 0 60034 29700.00000 0 -9540484.602 -7930045.086 -22306054.072 10 0 60034 30600.00000 0 -9228368.071 -10598101.186 -21305855.662 10 0 60034 31500.00000 0 -9118817.076 -13133734.535 -19892603.872 10 0 60034 32400.00000 0 -9191863.883 -15473271.828 -18093628.597 10 0 60034 33300.00000 0 -9416816.544 -17559304.691 -15943736.950 10 0 60034 34200.00000 0 -9753688.798 -19342873.114 -13484548.882 10 0 60034 35100.00000 0 -10155035.511 -20785309.849 -10763700.448 10 0 60034 36000.00000 0 -10568116.857 -21859669.273 -7833929.061 10 0 60034 36900.00000 0 -10937300.392 -22551681.165 -4752057.630 10 0 60034 37800.00000 0 -11206599.798 -22860189.385 -1577896.611 10 0 60034 38700.00000 0 -11322242.979 -22797056.857 1626915.099 10 0 60034 39600.00000 0 -11235160.416 -22386540.551 4800107.870 10 0 60034 40500.00000 0 -10903287.788 -21664162.480 7879994.167 10 0 60034 41400.00000 0 -10293584.271 -20675124.090 10806672.430 10 0 60034 42300.00000 0 -9383679.772 -19472330.769 13523197.920 10 0 60034 43200.00000 0 -8163079.871 -18114109.831 15976697.062 10 0 60034 44100.00000 0 -6633875.842 -16661718.358 18119402.939 10 0 60034 45000.00000 0 -4810928.072 -15176746.216 19909591.171 10 0 60034 45900.00000 0 -2721513.445 -13718523.951 21312397.489 10 0 60034 46800.00000 0 -404449.889 -12341645.005 22300500.813 10 0 60034 47700.00000 0 2091266.536 -11093706.709 22854658.317 10 0 60034 48600.00000 0 4708256.152 -10013365.143 22964082.004 10 0 60034 49500.00000 0 7382907.657 -9128785.542 22626649.465 10 0 60034 50400.00000 0 10047798.408 -8456553.076 21848944.752 10 0 60034 51300.00000 0 12634282.482 -8001089.313 20646128.626 10 0 60034 52200.00000 0 15075138.935 -7754598.171 19041640.742 10 0 60034 53100.00000 0 17307169.990 -7697542.808 17066739.681 10 0 60034 54000.00000 0 19273641.028 -7799632.301 14759889.858 10 0 60034 54900.00000 0 20926460.803 -8021275.474 12166007.440 10 0 60034 55800.00000 0 22228011.180 -8315439.335 9335580.241 10 0 60034 56700.00000 0 23152550.505 -8629832.538 6323679.130 10 0 60034 57600.00000 0 23687132.675 -8909320.462 3188880.665 10 0 60034 58500.00000 0 23832004.416 -9098468.820 -7877.430 10 0 60034 59400.00000 0 23600465.364 -9144107.344 -3204485.099 10 0 60034 60300.00000 0 23018198.143 -8997804.446 -6338869.393 10 0 60034 61200.00000 0 22122097.983 -8618147.709 -9350200.521 10 0 60034 62100.00000 0 20958652.289 -7972733.512 -12180070.815 10 0 60034 63000.00000 0 19581939.329 -7039781.607 -14773623.742 10 0 60034 63900.00000 0 18051330.803 -5809306.405 -17080611.297 10 0 60034 64800.00000 0 16428995.111 -4283795.521 -19056359.845 10 0 60034 65700.00000 0 14777305.919 -2478366.725 -20662626.557 10 0 60034 66600.00000 0 13156264.173 -420396.255 -21868330.776 10 0 60034 67500.00000 0 11621040.609 1851366.718 -22650147.250 10 0 60034 68400.00000 0 10219740.473 4288163.545 -22992950.761 10 0 60034 69300.00000 0 8991482.636 6833011.897 -22890104.362 10 0 60034 70200.00000 0 7964872.113 9422841.068 -22343586.234 10 0 60034 71100.00000 0 7156928.614 11990889.646 -21363952.909 10 0 60034 72000.00000 0 6572514.987 14469267.506 -19970139.438 10 0 60034 72900.00000 0 6204288.716 16791577.248 -18189099.856 10 0 60034 73800.00000 0 6033178.106 18895487.470 -16055294.081 10 0 60034 74700.00000 0 6029363.038 20725151.894 -13610030.188 10 0 60034 75600.00000 0 6153719.180 22233374.346 -10900673.692 10 0 60034 76500.00000 0 6359665.080 23383429.707 -7979738.092 10 0 60034 77400.00000 0 6595334.538 24150464.818 -4903873.435 10 0 60034 78300.00000 0 6805982.725 24522420.553 -1732771.842 10 0 60034 79200.00000 0 6936524.289 24500436.004 1471989.137 10 0 60034 80100.00000 0 6934095.798 24098717.341 4648142.876 10 0 60034 81000.00000 0 6750533.426 23343876.338 7733946.276 10 0 60034 81900.00000 0 6344660.061 22273765.947 10669384.582 10 0 60034 82800.00000 0 5684283.786 20935861.595 13397344.310 10 0 60034 83700.00000 0 4747821.724 19385256.193 15864730.803 10 0 60034 84600.00000 0 3525478.982 17682353.163 18023507.979 10 0 60034 85500.00000 0 2019931.211 15890354.723 19831639.435 10 0 60035 0.00000 0 246480.445 14072651.338 21253911.999 10 0 60035 900.00000 0 -1767324.972 12290221.298 22262626.104 10 0 60035 1800.00000 0 -3982589.488 10599152.190 22838137.485 10 0 60035 2700.00000 0 -6350455.222 9048385.108 22969242.168 10 0 60035 3600.00000 0 -8813913.404 7677778.511 22653395.223 10 0 60035 4500.00000 0 -11309968.311 6516571.626 21896759.918 10 0 60035 5400.00000 0 -13772063.732 5582311.462 20714086.209 10 0 60035 6300.00000 0 -16132671.004 4880287.629 19128421.006 10 0 60035 7200.00000 0 -18325930.751 4403497.668 17170655.904 10 0 60035 8100.00000 0 -20290238.130 4133143.166 14878921.343 10 0 60035 9000.00000 0 -21970663.695 4039634.388 12297839.094 10 0 60035 9900.00000 0 -23321108.789 4084059.710 9477647.969 10 0 60035 10800.00000 0 -24306105.591 4220056.406 6473220.116 10 0 60035 11700.00000 0 -24902186.903 4396002.415 3342987.548 10 0 60035 12600.00000 0 -25098768.897 4557435.181 147800.385 10 0 60035 13500.00000 0 -24898510.713 4649594.153 -3050260.347 10 0 60035 14400.00000 0 -24317136.829 4619978.499 -6189091.729 10 0 60035 15300.00000 0 -23382730.772 4420811.155 -9207775.736 10 0 60035 16200.00000 0 -22134530.958 4011304.568 -12047760.109 10 0 60035 17100.00000 0 -20621280.167 3359632.133 -14653990.345 10 0 60035 18000.00000 0 -18899198.665 2444521.958 -16975971.084 10 0 60035 18900.00000 0 -17029666.359 1256405.705 -18968736.877 10 0 60035 19800.00000 0 -15076711.079 -201926.052 -20593714.327 10 0 60035 20700.00000 0 -13104407.713 -1915189.787 -21819459.894 10 0 60035 21600.00000 0 -11174296.131 -3856002.490 -22622260.121 10 0 60035 22500.00000 0 -9342924.615 -5985787.085 -22986583.713 10 0 60035 23400.00000 0 -7659620.048 -8256153.063 -22905377.519 10 0 60035 24300.00000 0 -6164576.418 -10610696.193 -22380201.314 10 0 60035 25200.00000 0 -4887340.012 -12987143.879 -21421198.985 10 0 60035 26100.00000 0 -3845753.227 -15319758.489 -20046906.539 10 0 60035 27000.00000 0 -3045400.080 -17541900.198 -18283900.181 10 0 60035 27900.00000 0 -2479575.776 -19588644.142 -16166290.443 10 0 60035 28800.00000 0 -2129781.131 -21399343.957 -13735071.190 10 0 60035 29700.00000 0 -1966720.831 -22920035.688 -11037334.998 10 0 60035 30600.00000 0 -1951763.496 -24105582.170 -8125369.045 10 0 60035 31500.00000 0 -2038802.126 -24921468.282 -5055648.148 10 0 60035 32400.00000 0 -2176436.471 -25345171.694 -1887743.809 10 0 60035 33300.00000 0 -2310385.097 -25367051.112 1316829.971 10 0 60035 34200.00000 0 -2386024.856 -24990714.053 4495811.685 10 0 60035 35100.00000 0 -2350949.815 -24232847.950 7587404.717 10 0 60035 36000.00000 0 -2157440.492 -23122520.945 10531483.089 10 0 60035 36900.00000 0 -1764737.790 -21699981.172 13270766.483 10 0 60035 37800.00000 0 -1141024.123 -20015004.527 15751940.959 10 0 60035 38700.00000 0 -265026.442 -18124860.098 17926702.941 10 0 60035 39600.00000 0 872828.139 -16091978.631 19752705.489 10 0 60035 40500.00000 0 2269754.512 -13981421.900 21194388.007 10 0 60035 41400.00000 0 3910478.858 -11858259.219 22223672.915 10 0 60035 42300.00000 0 5767642.041 -9784961.157 22820515.512 10 0 60035 43200.00000 0 7802721.499 -7818919.622 22973296.255 10 0 60035 44100.00000 0 9967434.124 -6010198.010 22679047.816 10 0 60035 45000.00000 0 12205562.233 -4399605.269 21943512.530 10 0 60035 45900.00000 0 14455126.860 -3017173.939 20781029.153 10 0 60035 46800.00000 0 16650817.901 -1881105.087 19214251.208 10 0 60035 47700.00000 0 18726579.658 -997223.293 17273702.449 10 0 60035 48600.00000 0 20618243.741 -358963.265 14997178.234 10 0 60035 49500.00000 0 22266099.156 52112.849 12429004.591 10 0 60035 50400.00000 0 23617291.931 265290.801 9619169.707 10 0 60035 51300.00000 0 24627953.830 319217.060 6622345.103 10 0 60035 52200.00000 0 25264971.077 260013.473 3496816.052 10 0 60035 53100.00000 0 25507319.208 139074.915 303342.623 10 0 60035 54000.00000 0 25346908.597 10644.386 -2896025.840 10 0 60035 54900.00000 0 24788905.830 -70730.776 -6039159.208 10 0 60035 55800.00000 0 23851518.263 -52753.056 -9065054.013 10 0 60035 56700.00000 0 22565251.711 112169.292 -11915016.108 10 0 60035 57600.00000 0 20971673.181 464668.711 -14533795.564 10 0 60035 58500.00000 0 19121731.228 1036462.520 -16870652.006 10 0 60035 59400.00000 0 17073704.658 1848777.391 -18880330.253 10 0 60035 60300.00000 0 14890865.463 2911220.481 -20523928.190 10 0 60035 61200.00000 0 12638953.352 4221144.854 -21769640.984 10 0 60035 62100.00000 0 10383566.597 5763536.148 -22593368.315 10 0 60035 63000.00000 0 8187576.928 7511425.822 -22979173.868 10 0 60035 63900.00000 0 6108674.933 9426814.598 -22919589.059 10 0 60035 64800.00000 0 4197146.692 11462068.640 -22415755.704 10 0 60035 65700.00000 0 2493972.718 13561731.653 -21477405.128 10 0 60035 66600.00000 0 1029326.961 15664678.811 -20122674.008 10 0 60035 67500.00000 0 -178462.853 17706524.282 -18377760.049 10 0 60035 68400.00000 0 -1123451.230 19622183.417 -16276423.346 10 0 60035 69300.00000 0 -1812085.630 21348483.938 -13859342.128 10 0 60035 70200.00000 0 -2262692.040 22826718.003 -11173334.258 10 0 60035 71100.00000 0 -2504457.254 24005029.028 -8270458.492 10 0 60035 72000.00000 0 -2575950.867 24840533.503 -5207012.036 10 0 60035 72900.00000 0 -2523249.315 25301088.634 -2042443.145 10 0 60035 73800.00000 0 -2397741.247 25366631.117 1161800.525 10 0 60035 74700.00000 0 -2253707.229 25030029.941 4343465.499 10 0 60035 75600.00000 0 -2145776.551 24297416.492 7440704.589 10 0 60035 76500.00000 0 -2126369.448 23187977.016 10393283.523 10 0 60035 77400.00000 0 -2243233.903 21733215.270 13143757.976 10 0 60035 78300.00000 0 -2537182.384 19975715.548 15638597.434 10 0 60035 79200.00000 0 -3040125.568 17967457.387 17829233.354 10 0 60035 80100.00000 0 -3773487.571 15767752.325 19673010.588 10 0 60035 81000.00000 0 -4747071.046 13440888.952 21134023.100 10 0 60035 81900.00000 0 -5958421.507 11053584.806 22183817.381 10 0 60035 82800.00000 0 -7392719.006 8672351.747 22801949.654 10 0 60035 83700.00000 0 -9023203.008 6360884.915 22976385.950 10 0 60035 84600.00000 0 -10812113.694 4177584.282 22703737.261 10 0 60035 85500.00000 0 -12712111.077 2173312.066 21989325.220 10 0 60036 0.00000 0 -14668112.914 389479.386 20847077.215 10 0 60036 900.00000 0 -16619475.862 -1143459.554 19299252.332 10 0 60036 1800.00000 0 -18502426.099 -2407041.400 17376005.171 10 0 60036 2700.00000 0 -20252641.068 -3395316.853 15114794.089 10 0 60036 3600.00000 0 -21807871.476 -4114840.262 12559646.978 10 0 60036 4500.00000 0 -23110494.470 -4584128.696 9760298.607 10 0 60036 5400.00000 0 -24109890.563 -4832614.842 6771216.792 10 0 60036 6300.00000 0 -24764544.473 -4899139.634 3650536.766 10 0 60036 7200.00000 0 -25043781.670 -4830049.929 458925.147 10 0 60036 8100.00000 0 -24929067.912 -4676983.133 -2741603.841 10 0 60036 9000.00000 0 -24414817.520 -4494433.793 -5888896.276 10 0 60036 9900.00000 0 -23508676.962 -4337206.094 -8921866.577 10 0 60036 10800.00000 0 -22231272.427 -4257860.802 -11781681.905 10 0 60036 11700.00000 0 -20615432.580 -4304265.003 -14412899.910 10 0 60036 12600.00000 0 -18704919.593 -4517348.373 -16764537.915 10 0 60036 13500.00000 0 -16552721.889 -4929160.645 -18791053.353 10 0 60036 14400.00000 0 -14218980.024 -5561312.058 -20453217.260 10 0 60036 15300.00000 0 -11768632.032 -6423862.331 -21718864.829 10 0 60036 16200.00000 0 -9268875.764 -7514704.865 -22563509.568 10 0 60036 17100.00000 0 -6786552.910 -8819472.289 -22970810.212 10 0 60036 18000.00000 0 -4385562.314 -10311967.819 -22932882.184 10 0 60036 18900.00000 0 -2124408.661 -11955105.214 -22450448.221 10 0 60036 19800.00000 0 -53986.882 -13702319.170 -21532825.472 10 0 60036 20700.00000 0 1784307.085 -15499388.515 -20197749.273 10 0 60036 21600.00000 0 3360062.018 -17286597.496 -18471036.493 10 0 60036 22500.00000 0 4654872.936 -19001146.287 -16386094.225 10 0 60036 23400.00000 0 5662856.783 -20579711.208 -13983282.341 10 0 60036 24300.00000 0 6390641.458 -21961048.603 -11309141.180 10 0 60036 25200.00000 0 6856829.166 -23088533.994 -8415498.241 10 0 60036 26100.00000 0 7090956.894 -23912530.338 -5358470.311 10 0 60036 27000.00000 0 7131998.006 -24392485.852 -2197379.673 10 0 60036 27900.00000 0 7026468.225 -24498672.746 1006394.981 10 0 60036 28800.00000 0 6826216.205 -24213492.892 4190610.680 10 0 60036 29700.00000 0 6585992.438 -23532294.446 7293371.963 10 0 60036 30600.00000 0 6360899.815 -22463663.830 10254338.365 10 0 60036 31500.00000 0 6203834.499 -21029179.609 13015903.450 10 0 60036 32400.00000 0 6163026.287 -19262637.453 15524321.777 10 0 60036 33300.00000 0 6279783.618 -17208777.783 17730761.218 10 0 60036 34200.00000 0 6586539.743 -14921568.727 19592259.507 10 0 60036 35100.00000 0 7105283.859 -12462115.798 21072565.940 10 0 60036 36000.00000 0 7846444.652 -9896285.398 22142851.521 10 0 60036 36900.00000 0 8808274.520 -7292141.339 22782273.509 10 0 60036 37800.00000 0 9976761.501 -4717301.272 22978383.307 10 0 60036 38700.00000 0 11326073.549 -2236323.179 22727369.734 10 0 60036 39600.00000 0 12819517.280 91769.217 22034132.987 10 0 60036 40500.00000 0 14410971.463 2215719.345 20912187.891 10 0 60036 41400.00000 0 16046735.478 4093936.383 19383398.378 10 0 60036 42300.00000 0 17667715.284 5695981.136 17477548.442 10 0 60036 43200.00000 0 19211855.118 7003578.184 15231758.009 10 0 60036 44100.00000 0 20616712.690 8011113.341 12689755.258 10 0 60036 45000.00000 0 21822069.406 8725597.121 9901019.818 10 0 60036 45900.00000 0 22772465.657 9166097.537 6919813.891 10 0 60036 46800.00000 0 23419554.320 9362667.922 3804120.620 10 0 60036 47700.00000 0 23724173.296 9354816.783 614510.952 10 0 60036 48600.00000 0 23658049.854 9189585.976 -2587038.338 10 0 60036 49500.00000 0 23205065.196 8919319.895 -5738351.911 10 0 60036 50400.00000 0 22362026.270 8599221.222 -8778264.431 10 0 60036 51300.00000 0 21138912.756 8284797.481 -11647806.637 10 0 60036 52200.00000 0 19558589.184 8029306.915 -14291345.864 10 0 60036 53100.00000 0 17655994.591 7881311.844 -16657659.051 10 0 60036 54000.00000 0 15476843.809 7882442.723 -18700917.950 10 0 60036 54900.00000 0 13075894.632 8065466.991 -20381568.250 10 0 60036 55800.00000 0 10514852.879 8452743.693 -21667086.470 10 0 60036 56700.00000 0 7860002.029 9055128.616 -22532601.069 10 0 60036 57600.00000 0 5179655.076 9871375.770 -22961366.747 10 0 60036 58500.00000 0 2541533.368 10888060.469 -22945083.631 10 0 60036 59400.00000 0 10179.830 12080027.597 -22484055.790 10 0 60036 60300.00000 0 -2355487.568 13411347.066 -21587186.305 10 0 60036 61200.00000 0 -4504382.047 14836737.429 -20271808.905 10 0 60036 62100.00000 0 -6395123.771 16303399.286 -18563358.993 10 0 60036 63000.00000 0 -7997508.434 17753183.026 -16494889.646 10 0 60036 63900.00000 0 -9293508.554 19125001.361 -14106441.016 10 0 60036 64800.00000 0 -10277766.564 20357386.598 -11444274.242 10 0 60036 65700.00000 0 -10957559.668 21391086.177 -8559983.617 10 0 60036 66600.00000 0 -11352238.341 22171587.856 -5509503.342 10 0 60036 67500.00000 0 -11492162.302 22651468.415 -2352027.385 10 0 60036 68400.00000 0 -11417178.931 22792466.618 851137.003 10 0 60036 69300.00000 0 -11174708.480 22567192.352 4037759.922 10 0 60036 70200.00000 0 -10817517.181 21960398.847 7145900.266 10 0 60036 71100.00000 0 -10401272.778 20969763.090 10115114.033 10 0 60036 72000.00000 0 -9981986.425 19606140.123 12887635.307 10 0 60036 72900.00000 0 -9613449.871 17893279.178 15409506.305 10 0 60036 73800.00000 0 -9344777.210 15867012.225 17631633.812 10 0 60036 74700.00000 0 -9218156.058 13573947.926 19510750.798 10 0 60036 75600.00000 0 -9266904.198 11069724.812 21010264.076 10 0 60036 76500.00000 0 -9513914.744 8416896.107 22100971.114 10 0 60036 77400.00000 0 -9970556.325 5682534.140 22761631.879 10 0 60036 78300.00000 0 -10636075.538 2935654.019 22979384.476 10 0 60036 79200.00000 0 -11497527.523 244563.735 22749996.483 10 0 60036 80100.00000 0 -12530238.172 -2325749.071 22077947.136 10 0 60036 81000.00000 0 -13698778.909 -4716085.113 20976338.796 10 0 60036 81900.00000 0 -14958413.296 -6875253.861 19466639.493 10 0 60036 82800.00000 0 -16256954.659 -8761954.375 17578261.617 10 0 60036 83700.00000 0 -17536956.502 -10346238.984 15347985.074 10 0 60036 84600.00000 0 -18738143.321 -11610499.827 12819236.262 10 0 60036 85500.00000 0 -19799979.155 -12549938.312 10041237.183 99